Regional Weather Roundup
Issued by NWS Sioux Falls, SD

Home | Current Version | Previous Version | Graphics & Text | Print | Product List | Glossary Off
Versions: 1 2 3 4 5 6 7 8 9 10 11 12 13 14 15 16 17 18 19 20 21 22 23 24 25 26 27 28 29 30 31 32 33 34 35 36 37 38 39 40 41 42 43 44 45 46 47 48 49 50

000
ASUS43 KFSD 300802
RWRFSD

WEATHER ROUNDUP FOR SE SOUTH DAKOTA/SW MINNESOTA/NW IOWA
NATIONAL WEATHER SERVICE SIOUX FALLS SD
300 AM CDT THU JUL 30 2015

NOTE: "FAIR" INDICATES FEW OR NO CLOUDS BELOW 12,000 FEET WITH NO
SIGNIFICANT WEATHER AND OR OBSTRUCTIONS TO VISIBILITY.


SDZ038>040-050-052>070-300900-
SOUTHEAST SOUTH DAKOTA

CITY           SKY/WX    TMP DP  RH WIND       PRES   REMARKS
BROOKINGS      CLEAR     61  54  77 SW5       30.13S
CHAMBERLAIN    MOCLDY    62  58  88 CALM      30.14S
HURON          CLEAR     62  54  74 SW6       30.10S
MADISON        FAIR      59  55  88 W6        30.13S
MITCHELL       PTCLDY    60  56  86 CALM      30.12S
SIOUX FALLS    MOCLDY    62  57  83 CALM      30.12S
WINNER         CLOUDY    73  52  47 SW10      30.15F
YANKTON        CLEAR     64  55  72 NE3       30.12S
$$

MNZ071-072-080-081-089-090-097-098-300900-
SOUTHWEST MINNESOTA

CITY           SKY/WX    TMP DP  RH WIND       PRES   REMARKS
FAIRMONT       CLEAR     64  52  63 SW8       30.09S
JACKSON        CLEAR     61  55  82 SW5       30.12S
LUVERNE        CLEAR     61  55  82 CALM      30.13S
MARSHALL       CLEAR     63  52  67 SW10      30.09S
MONTEVIDEO     CLEAR     61  54  77 W7        30.07S
PIPESTONE      CLEAR     59  54  82 CALM      30.13S
REDWOOD FALLS  CLEAR     65  54  67 SW10      30.06S
TRACY          CLEAR     63  55  77 SW8       30.10S
WINDOM         CLEAR     61  55  82 CALM      30.11S
WORTHINGTON    CLEAR     61  54  77 SW8       30.13S
$$

IAZ001>003-012>014-020>022-031-032-NEZ013-014-SDZ071-300900-
NORTHWEST IOWA

CITY           SKY/WX    TMP DP  RH WIND       PRES   REMARKS
DENISON        CLEAR     61  59  94 CALM      30.14S
ESTHERVILLE    CLEAR     59  57  93 W7        30.11S
SIOUX CITY     CLEAR     66  58  75 W6        30.14R
SPENCER          N/A     58  54  86 CALM      30.13S
$$

ABBREVIATIONS USED IN REMARKS
   TC - TEMPERATURE IN CELSIUS
  WCI - WIND CHILL INDEX
   HX - HEAT INDEX
  VSB - VISIBILITY




USA.gov is the U.S. government's official web portal to all federal, state and local government web resources and services.